TimeEDT,TemperatureF,Dew PointF,Humidity,Sea Level PressureIn,VisibilityMPH,Wind Direction,Wind SpeedMPH,Gust SpeedMPH,PrecipitationIn,Events,Conditions,WindDirDegrees,DateUTC
12:34 AM,35.6,31.5,85,30.28,10.0,Calm,Calm,-,N/A,,Scattered Clouds,0,2012-10-27 04:34:00
12:54 AM,35.8,31.8,86,30.28,10.0,Calm,Calm,-,N/A,,Scattered Clouds,0,2012-10-27 04:54:00
1:14 AM,36.1,32.9,88,30.28,10.0,Calm,Calm,-,N/A,,Clear,0,2012-10-27 05:14:00
1:35 AM,34.9,33.3,94,30.26,10.0,Calm,Calm,-,N/A,,Scattered Clouds,0,2012-10-27 05:35:00
1:54 AM,34.5,33.4,96,30.26,10.0,WNW,3.5,-,N/A,,Clear,300,2012-10-27 05:54:00
2:14 AM,34.0,32.5,94,30.25,10.0,Calm,Calm,-,N/A,,Clear,0,2012-10-27 06:14:00
2:34 AM,34.0,32.9,96,30.26,10.0,Calm,Calm,-,N/A,,Clear,0,2012-10-27 06:34:00
2:54 AM,33.3,32.4,96,30.26,10.0,Calm,Calm,-,N/A,,Clear,0,2012-10-27 06:54:00
3:14 AM,32.7,32.0,97,30.26,10.0,Calm,Calm,-,N/A,,Clear,0,2012-10-27 07:14:00
3:35 AM,32.4,32.0,99,30.26,10.0,Calm,Calm,-,N/A,,Scattered Clouds,0,2012-10-27 07:35:00
3:54 AM,31.3,30.9,99,30.26,10.0,Calm,Calm,-,N/A,,Mostly Cloudy,0,2012-10-27 07:54:00
4:34 AM,30.6,30.4,99,30.25,10.0,Calm,Calm,-,N/A,,Scattered Clouds,0,2012-10-27 08:34:00
4:54 AM,30.7,30.6,99,30.25,10.0,Calm,Calm,-,N/A,,Clear,0,2012-10-27 08:54:00
5:15 AM,30.7,30.2,98,30.25,10.0,Calm,Calm,-,N/A,,Clear,0,2012-10-27 09:15:00
5:34 AM,30.2,30.0,99,30.25,10.0,Calm,Calm,-,N/A,,Clear,0,2012-10-27 09:34:00
5:54 AM,30.0,29.7,99,30.25,10.0,Calm,Calm,-,N/A,,Clear,0,2012-10-27 09:54:00
6:14 AM,30.2,29.8,99,30.25,10.0,Calm,Calm,-,N/A,,Clear,0,2012-10-27 10:14:00
6:34 AM,31.1,30.9,99,30.26,10.0,Calm,Calm,-,N/A,,Mostly Cloudy,0,2012-10-27 10:34:00
6:55 AM,30.2,30.0,99,30.26,10.0,Calm,Calm,-,N/A,,Mostly Cloudy,0,2012-10-27 10:55:00
7:14 AM,29.8,29.5,99,30.27,10.0,Calm,Calm,-,N/A,,Scattered Clouds,0,2012-10-27 11:14:00
7:54 AM,30.7,30.2,98,30.28,10.0,Calm,Calm,-,N/A,,Mostly Cloudy,0,2012-10-27 11:54:00
8:14 AM,31.1,30.7,99,30.28,10.0,Calm,Calm,-,N/A,,Scattered Clouds,0,2012-10-27 12:14:00
8:34 AM,31.5,30.9,98,30.28,10.0,NW,3.5,-,N/A,,Mostly Cloudy,320,2012-10-27 12:34:00
8:55 AM,31.8,31.6,99,30.28,10.0,NW,3.5,-,N/A,,Scattered Clouds,310,2012-10-27 12:55:00
9:14 AM,32.9,32.0,96,30.29,10.0,Calm,Calm,-,N/A,,Scattered Clouds,0,2012-10-27 13:14:00
9:34 AM,34.9,34.0,97,30.28,10.0,Calm,Calm,-,N/A,,Clear,0,2012-10-27 13:34:00
10:14 AM,40.3,34.9,81,30.28,10.0,NNW,4.6,-,N/A,,Clear,330,2012-10-27 14:14:00
10:35 AM,41.7,32.4,69,30.28,10.0,North,5.8,-,N/A,,Clear,350,2012-10-27 14:35:00
10:54 AM,42.8,32.0,66,30.29,10.0,North,6.9,-,N/A,,Clear,10,2012-10-27 14:54:00
11:35 AM,44.4,27.7,52,30.28,10.0,North,4.6,-,N/A,,Clear,10,2012-10-27 15:35:00
11:54 AM,45.3,27.5,50,30.28,10.0,North,3.5,-,N/A,,Clear,10,2012-10-27 15:54:00
12:14 PM,45.0,26.6,49,30.27,10.0,North,5.8,-,N/A,,Clear,360,2012-10-27 16:14:00
12:35 PM,45.1,26.8,49,30.27,10.0,North,3.5,-,N/A,,Scattered Clouds,360,2012-10-27 16:35:00
12:54 PM,46.4,27.0,47,30.26,10.0,WNW,4.6,-,N/A,,Scattered Clouds,300,2012-10-27 16:54:00
1:14 PM,45.0,26.1,48,30.25,10.0,NNW,4.6,-,N/A,,Mostly Cloudy,330,2012-10-27 17:14:00
1:34 PM,46.6,26.6,46,30.24,10.0,NW,4.6,-,N/A,,Mostly Cloudy,310,2012-10-27 17:34:00
1:54 PM,45.7,26.8,48,30.23,10.0,North,5.8,-,N/A,,Mostly Cloudy,350,2012-10-27 17:54:00
2:15 PM,45.9,25.7,45,30.23,10.0,NNW,3.5,-,N/A,,Mostly Cloudy,340,2012-10-27 18:15:00
2:34 PM,47.7,27.1,45,30.23,10.0,WNW,6.9,-,N/A,,Scattered Clouds,300,2012-10-27 18:34:00
2:54 PM,47.8,26.4,43,30.23,10.0,NW,3.5,-,N/A,,Scattered Clouds,320,2012-10-27 18:54:00
3:15 PM,48.9,26.8,42,30.22,10.0,NNW,8.1,-,N/A,,Mostly Cloudy,330,2012-10-27 19:15:00
3:34 PM,47.8,26.4,43,30.21,10.0,NNW,10.4,-,N/A,,Mostly Cloudy,330,2012-10-27 19:34:00
3:54 PM,48.0,25.9,42,30.21,10.0,NNW,6.9,-,N/A,,Scattered Clouds,330,2012-10-27 19:54:00
4:15 PM,46.9,26.8,45,30.21,10.0,NW,10.4,-,N/A,,Scattered Clouds,320,2012-10-27 20:15:00
4:34 PM,45.5,26.6,48,30.22,10.0,NNW,9.2,-,N/A,,Scattered Clouds,330,2012-10-27 20:34:00
4:54 PM,45.7,32.0,59,30.22,10.0,NW,15.0,19.6,N/A,,Clear,310,2012-10-27 20:54:00
5:14 PM,45.1,32.0,60,30.22,10.0,WNW,12.7,17.3,N/A,,Clear,300,2012-10-27 21:14:00
5:34 PM,45.0,31.6,60,30.21,10.0,NW,15.0,21.9,N/A,,Scattered Clouds,310,2012-10-27 21:34:00
5:54 PM,43.9,30.9,60,30.22,10.0,NW,9.2,-,N/A,,Scattered Clouds,310,2012-10-27 21:54:00
6:14 PM,43.0,30.4,61,30.23,10.0,NW,11.5,-,N/A,,Clear,310,2012-10-27 22:14:00
6:35 PM,41.7,30.2,64,30.24,10.0,NW,8.1,-,N/A,,Clear,320,2012-10-27 22:35:00
6:54 PM,40.5,30.6,68,30.23,10.0,NW,10.4,-,N/A,,Clear,310,2012-10-27 22:54:00
7:15 PM,39.9,30.4,69,30.24,10.0,NW,9.2,-,N/A,,Clear,320,2012-10-27 23:15:00
7:34 PM,39.2,30.2,70,30.24,10.0,NNW,9.2,-,N/A,,Clear,330,2012-10-27 23:34:00
7:54 PM,38.5,30.2,72,30.25,10.0,NNW,8.1,-,N/A,,Clear,330,2012-10-27 23:54:00
8:14 PM,37.6,30.0,74,30.26,10.0,NNW,6.9,-,N/A,,Clear,330,2012-10-28 00:14:00
8:34 PM,37.0,29.8,75,30.26,10.0,NNW,5.8,-,N/A,,Clear,330,2012-10-28 00:34:00
8:54 PM,37.4,29.3,73,30.26,10.0,NNW,6.9,-,N/A,,Clear,330,2012-10-28 00:54:00
9:14 PM,36.1,29.3,76,30.26,10.0,NW,5.8,-,N/A,,Clear,320,2012-10-28 01:14:00
9:35 PM,36.1,29.1,76,30.26,10.0,NNW,8.1,-,N/A,,Clear,330,2012-10-28 01:35:00
9:54 PM,36.5,28.9,74,30.27,10.0,NNW,6.9,-,N/A,,Clear,340,2012-10-28 01:54:00
10:14 PM,36.5,28.4,72,30.27,10.0,North,6.9,-,N/A,,Clear,350,2012-10-28 02:14:00
10:34 PM,36.3,27.9,71,30.27,10.0,North,5.8,-,N/A,,Clear,350,2012-10-28 02:34:00
10:54 PM,36.1,27.9,72,30.27,10.0,North,6.9,-,N/A,,Clear,350,2012-10-28 02:54:00
11:14 PM,36.5,27.5,70,30.27,10.0,North,5.8,-,N/A,,Clear,350,2012-10-28 03:14:00
11:35 PM,36.3,27.5,70,30.27,10.0,North,6.9,-,N/A,,Clear,360,2012-10-28 03:35:00
11:54 PM,36.5,27.3,69,30.27,10.0,North,8.1,-,N/A,,Clear,350,2012-10-28 03:54:00